owner,sensor,date,latitude,longitude,vertical_datum,sea_water_practical_salinity,qcFlag 
DISL,ioos:station:DISL:BSCA:1,2018-12-01T00:00:00Z,30.3288,-87.8293,1.693,17.36,1111122 
DISL,ioos:station:DISL:BSCA:1,2018-12-01T00:30:00Z,30.3288,-87.8293,1.7,17.3,11111222 
DISL,ioos:station:DISL:BSCA:1,2018-12-01T01:00:00Z,30.3288,-87.8293,1.8,17.3,11111222 
DISL,ioos:station:DISL:BSCA:1,2018-12-01T01:30:00Z,30.3288,-87.8293,1.8,17.3,11111222 
DISL,ioos:station:DISL:BSCA:1,2018-12-01T02:00:00Z,30.3288,-87.8293,1.8,17.0,11111222 
DISL,ioos:station:DISL:BSCA:1,2018-12-01T02:30:00Z,30.3288,-87.8293,1.8,16.8,11111222 
DISL,ioos:station:DISL:BSCA:1,2018-12-01T03:00:00Z,30.3288,-87.8293,1.8,16.6,11111222 
DISL,ioos:station:DISL:BSCA:1,2018-12-01T03:30:00Z,30.3288,-87.8293,1.9,16.6,11111222 
DISL,ioos:station:DISL:BSCA:1,2018-12-01T04:00:00Z,30.3288,-87.8293,1.9,16.6,11111222 
DISL,ioos:station:DISL:BSCA:1,2018-12-01T04:30:00Z,30.3288,-87.8293,1.9,16.5,11111222 
DISL,ioos:station:DISL:BSCA:1,2018-12-01T05:00:00Z,30.3288,-87.8293,1.9,16.2,11111222 
DISL,ioos:station:DISL:BSCA:1,2018-12-01T05:30:00Z,30.3288,-87.8293,1.9,16.3,11111222 
DISL,ioos:station:DISL:BSCA:1,2018-12-01T06:00:00Z,30.3288,-87.8293,1.921,16.13,1111122 
DISL,ioos:station:DISL:BSCA:1,2018-12-01T06:30:00Z,30.3288,-87.8293,1.932,16.2,1111122 
DISL,ioos:station:DISL:BSCA:1,2018-12-01T07:00:00Z,30.3288,-87.8293,1.9,16.4,11111222 
DISL,ioos:station:DISL:BSCA:1,2018-12-01T07:30:00Z,30.3288,-87.8293,2.0,16.2,11111222 
DISL,ioos:station:DISL:BSCA:1,2018-12-01T08:00:00Z,30.3288,-87.8293,2.0,16.3,11111222 
DISL,ioos:station:DISL:BSCA:1,2018-12-01T08:30:00Z,30.3288,-87.8293,2.0,16.1,11111222 
DISL,ioos:station:DISL:BSCA:1,2018-12-01T09:00:00Z,30.3288,-87.8293,2.0,16.1,11111222 
DISL,ioos:station:DISL:BSCA:1,2018-12-01T09:30:00Z,30.3288,-87.8293,2.0,16.0,11111222 
DISL,ioos:station:DISL:BSCA:1,2018-12-01T10:00:00Z,30.3288,-87.8293,2.1,15.7,11111222 
DISL,ioos:station:DISL:BSCA:1,2018-12-01T10:30:00Z,30.3288,-87.8293,2.1,15.6,11111222 
DISL,ioos:station:DISL:BSCA:1,2018-12-01T11:00:00Z,30.3288,-87.8293,2.1,15.8,11111222 
DISL,ioos:station:DISL:BSCA:1,2018-12-01T11:30:00Z,30.3288,-87.8293,2.1,15.7,11111222 
DISL,ioos:station:DISL:BSCA:1,2018-12-01T12:00:00Z,30.3288,-87.8293,2.1,15.4,11111222 
DISL,ioos:station:DISL:BSCA:1,2018-12-01T12:30:00Z,30.3288,-87.8293,2.1,15.6,11111222 
DISL,ioos:station:DISL:BSCA:1,2018-12-01T13:00:00Z,30.3288,-87.8293,2.1,15.7,11111222 
DISL,ioos:station:DISL:BSCA:1,2018-12-01T13:30:00Z,30.3288,-87.8293,2.1,15.7,11111222 
DISL,ioos:station:DISL:BSCA:1,2018-12-01T14:00:00Z,30.3288,-87.8293,2.1,15.5,11111222 
DISL,ioos:station:DISL:BSCA:1,2018-12-01T14:30:00Z,30.3288,-87.8293,2.1,15.9,11111222 
DISL,ioos:station:DISL:BSCA:1,2018-12-01T15:00:00Z,30.3288,-87.8293,2.1,15.9,11111222 
DISL,ioos:station:DISL:BSCA:1,2018-12-01T15:30:00Z,30.3288,-87.8293,2.0,15.9,11111222 
DISL,ioos:station:DISL:BSCA:1,2018-12-01T16:00:00Z,30.3288,-87.8293,2.0,15.9,11111222 
DISL,ioos:station:DISL:BSCA:1,2018-12-01T16:30:00Z,30.3288,-87.8293,2.0,15.9,11111222 
DISL,ioos:station:DISL:BSCA:1,2018-12-01T17:00:00Z,30.3288,-87.8293,2.0,14.5,11111222 
DISL,ioos:station:DISL:BSCA:1,2018-12-01T17:30:00Z,30.3288,-87.8293,2.0,14.3,11111222 
DISL,ioos:station:DISL:BSCA:1,2018-12-01T18:00:00Z,30.3288,-87.8293,2.0,14.8,11111222 
DISL,ioos:station:DISL:BSCA:1,2018-12-01T18:30:00Z,30.3288,-87.8293,2.0,14.7,11111222 
DISL,ioos:station:DISL:BSCA:1,2018-12-01T19:00:00Z,30.3288,-87.8293,2.1,15.4,11111222 
DISL,ioos:station:DISL:BSCA:1,2018-12-01T19:30:00Z,30.3288,-87.8293,2.2,14.8,11111222 
DISL,ioos:station:DISL:BSCA:1,2018-12-01T20:00:00Z,30.3288,-87.8293,2.2,15.9,11111222 
DISL,ioos:station:DISL:BSCA:1,2018-12-01T20:30:00Z,30.3288,-87.8293,2.1,15.6,11111222 
DISL,ioos:station:DISL:BSCA:1,2018-12-01T21:00:00Z,30.3288,-87.8293,2.1,15.3,11111222 
DISL,ioos:station:DISL:BSCA:1,2018-12-01T21:30:00Z,30.3288,-87.8293,2.0,14.7,11111222 
DISL,ioos:station:DISL:BSCA:1,2018-12-01T22:00:00Z,30.3288,-87.8293,2.0,14.9,11111222 
DISL,ioos:station:DISL:BSCA:1,2018-12-01T22:30:00Z,30.3288,-87.8293,2.0,14.9,11111222 
DISL,ioos:station:DISL:BSCA:1,2018-12-01T23:00:00Z,30.3288,-87.8293,2.0,14.4,11111222 
DISL,ioos:station:DISL:BSCA:1,2018-12-01T23:30:00Z,30.3288,-87.8293,2.0,14.5,11111222 
DISL,ioos:station:DISL:BSCA:1,2018-12-02T00:00:00Z,30.3288,-87.8293,2.0,15.0,11111222 
DISL,ioos:station:DISL:BSCA:1,2018-12-02T00:30:00Z,30.3288,-87.8293,2.1,14.7,11111222 
DISL,ioos:station:DISL:BSCA:1,2018-12-02T01:00:00Z,30.3288,-87.8293,2.1,14.8,11111222 
DISL,ioos:station:DISL:BSCA:1,2018-12-02T01:30:00Z,30.3288,-87.8293,2.0,14.7,11111222 
DISL,ioos:station:DISL:BSCA:1,2018-12-02T02:00:00Z,30.3288,-87.8293,2.0,14.4,11111222 
DISL,ioos:station:DISL:BSCA:1,2018-12-02T02:30:00Z,30.3288,-87.8293,2.0,14.2,11111222 
DISL,ioos:station:DISL:BSCA:1,2018-12-02T03:00:00Z,30.3288,-87.8293,2.0,14.1,11111222 
DISL,ioos:station:DISL:BSCA:1,2018-12-02T03:30:00Z,30.3288,-87.8293,2.0,14.1,11111222 
DISL,ioos:station:DISL:BSCA:1,2018-12-02T04:00:00Z,30.3288,-87.8293,2.1,14.3,11111222 
DISL,ioos:station:DISL:BSCA:1,2018-12-02T04:30:00Z,30.3288,-87.8293,2.1,14.2,11111222 
DISL,ioos:station:DISL:BSCA:1,2018-12-02T05:00:00Z,30.3288,-87.8293,2.1,14.2,11111222 
DISL,ioos:station:DISL:BSCA:1,2018-12-02T05:30:00Z,30.3288,-87.8293,2.0,14.3,11111222 
DISL,ioos:station:DISL:BSCA:1,2018-12-02T06:00:00Z,30.3288,-87.8293,2.029,14.44,1111122 
DISL,ioos:station:DISL:BSCA:1,2018-12-02T06:30:00Z,30.3288,-87.8293,2.0,14.7,11111222 
DISL,ioos:station:DISL:BSCA:1,2018-12-02T07:00:00Z,30.3288,-87.8293,2.0,14.82,1111122 
DISL,ioos:station:DISL:BSCA:1,2018-12-02T07:30:00Z,30.3288,-87.8293,2.0,14.8,11111222 
DISL,ioos:station:DISL:BSCA:1,2018-12-02T08:00:00Z,30.3288,-87.8293,1.999,14.84,1111122 
DISL,ioos:station:DISL:BSCA:1,2018-12-02T08:30:00Z,30.3288,-87.8293,2.049,14.85,1111122 
DISL,ioos:station:DISL:BSCA:1,2018-12-02T09:00:00Z,30.3288,-87.8293,2.0,14.7,11111222 
DISL,ioos:station:DISL:BSCA:1,2018-12-02T09:30:00Z,30.3288,-87.8293,2.0,14.5,11111222 
DISL,ioos:station:DISL:BSCA:1,2018-12-02T10:00:00Z,30.3288,-87.8293,2.008,14.18,1111122 
DISL,ioos:station:DISL:BSCA:1,2018-12-02T10:30:00Z,30.3288,-87.8293,2.0,14.3,11111222 
DISL,ioos:station:DISL:BSCA:1,2018-12-02T11:00:00Z,30.3288,-87.8293,2.008,14.38,1111122 
DISL,ioos:station:DISL:BSCA:1,2018-12-02T11:30:00Z,30.3288,-87.8293,2.0,14.4,11111222 
DISL,ioos:station:DISL:BSCA:1,2018-12-02T12:00:00Z,30.3288,-87.8293,1.959,14.47,1111122 
DISL,ioos:station:DISL:BSCA:1,2018-12-02T12:30:00Z,30.3288,-87.8293,2.0,15.1,11111222 
DISL,ioos:station:DISL:BSCA:1,2018-12-02T13:00:00Z,30.3288,-87.8293,1.92,15.33,1111122 
DISL,ioos:station:DISL:BSCA:1,2018-12-02T13:30:00Z,30.3288,-87.8293,1.9,15.5,11111222 
DISL,ioos:station:DISL:BSCA:1,2018-12-02T14:00:00Z,30.3288,-87.8293,1.917,15.87,1111122 
DISL,ioos:station:DISL:BSCA:1,2018-12-02T14:30:00Z,30.3288,-87.8293,1.9,16.1,11111222 
DISL,ioos:station:DISL:BSCA:1,2018-12-02T15:00:00Z,30.3288,-87.8293,1.91,16.21,1111122 
DISL,ioos:station:DISL:BSCA:1,2018-12-02T15:30:00Z,30.3288,-87.8293,1.9,16.3,11111222 
DISL,ioos:station:DISL:BSCA:1,2018-12-02T16:00:00Z,30.3288,-87.8293,1.905,16.64,1111122 
DISL,ioos:station:DISL:BSCA:1,2018-12-02T16:30:00Z,30.3288,-87.8293,1.9,16.8,11111222 
DISL,ioos:station:DISL:BSCA:1,2018-12-02T17:00:00Z,30.3288,-87.8293,1.887,16.79,1111122 
DISL,ioos:station:DISL:BSCA:1,2018-12-02T17:30:00Z,30.3288,-87.8293,1.9,16.7,11111222 
DISL,ioos:station:DISL:BSCA:1,2018-12-02T18:00:00Z,30.3288,-87.8293,1.867,16.79,1111122 
DISL,ioos:station:DISL:BSCA:1,2018-12-02T18:30:00Z,30.3288,-87.8293,1.9,16.7,11111222 
DISL,ioos:station:DISL:BSCA:1,2018-12-02T19:00:00Z,30.3288,-87.8293,1.873,16.65,1111122 
DISL,ioos:station:DISL:BSCA:1,2018-12-02T19:30:00Z,30.3288,-87.8293,1.9,16.8,11111222 
DISL,ioos:station:DISL:BSCA:1,2018-12-02T20:00:00Z,30.3288,-87.8293,1.886,16.84,1111122 
DISL,ioos:station:DISL:BSCA:1,2018-12-02T20:30:00Z,30.3288,-87.8293,1.9,16.8,11111222 
DISL,ioos:station:DISL:BSCA:1,2018-12-02T21:00:00Z,30.3288,-87.8293,1.908,16.76,1111122 
DISL,ioos:station:DISL:BSCA:1,2018-12-02T21:30:00Z,30.3288,-87.8293,1.9,16.8,11111222 
DISL,ioos:station:DISL:BSCA:1,2018-12-02T22:00:00Z,30.3288,-87.8293,1.942,16.91,1111122 
DISL,ioos:station:DISL:BSCA:1,2018-12-02T22:30:00Z,30.3288,-87.8293,2.0,17.0,11111222 
DISL,ioos:station:DISL:BSCA:1,2018-12-02T23:00:00Z,30.3288,-87.8293,1.97,16.97,1111122 
DISL,ioos:station:DISL:BSCA:1,2018-12-02T23:30:00Z,30.3288,-87.8293,2.0,17.0,11111222 
DISL,ioos:station:DISL:BSCA:1,2018-12-03T00:00:00Z,30.3288,-87.8293,1.993,16.97,1111122 
DISL,ioos:station:DISL:BSCA:1,2018-12-03T00:30:00Z,30.3288,-87.8293,2.0,16.9,11111222 
DISL,ioos:station:DISL:BSCA:1,2018-12-03T01:00:00Z,30.3288,-87.8293,2.004,16.96,1111122 
DISL,ioos:station:DISL:BSCA:1,2018-12-03T01:30:00Z,30.3288,-87.8293,2.0,17.0,11111222 
DISL,ioos:station:DISL:BSCA:1,2018-12-03T02:00:00Z,30.3288,-87.8293,2.017,16.97,1111122 
DISL,ioos:station:DISL:BSCA:1,2018-12-03T02:30:00Z,30.3288,-87.8293,2.0,17.0,11111222 
DISL,ioos:station:DISL:BSCA:1,2018-12-03T03:00:00Z,30.3288,-87.8293,2.029,16.89,1111122 
DISL,ioos:station:DISL:BSCA:1,2018-12-03T03:30:00Z,30.3288,-87.8293,2.0,16.7,11111222 
DISL,ioos:station:DISL:BSCA:1,2018-12-03T04:00:00Z,30.3288,-87.8293,2.011,16.94,1111122 
DISL,ioos:station:DISL:BSCA:1,2018-12-03T04:30:00Z,30.3288,-87.8293,2.0,16.9,11111222 
DISL,ioos:station:DISL:BSCA:1,2018-12-03T05:00:00Z,30.3288,-87.8293,1.973,16.89,1111122 
DISL,ioos:station:DISL:BSCA:1,2018-12-03T05:30:00Z,30.3288,-87.8293,2.0,17.0,11111222 
DISL,ioos:station:DISL:BSCA:1,2018-12-03T06:00:00Z,30.3288,-87.8293,1.922,17.05,1111122 
DISL,ioos:station:DISL:BSCA:1,2018-12-03T06:30:00Z,30.3288,-87.8293,1.9,17.0,11111222 
DISL,ioos:station:DISL:BSCA:1,2018-12-03T07:00:00Z,30.3288,-87.8293,1.86,17.03,1111122 
DISL,ioos:station:DISL:BSCA:1,2018-12-03T07:30:00Z,30.3288,-87.8293,1.8,17.0,11111222 
DISL,ioos:station:DISL:BSCA:1,2018-12-03T08:00:00Z,30.3288,-87.8293,1.815,16.82,1111122 
DISL,ioos:station:DISL:BSCA:1,2018-12-03T08:30:00Z,30.3288,-87.8293,1.8,16.9,11111222 
DISL,ioos:station:DISL:BSCA:1,2018-12-03T09:00:00Z,30.3288,-87.8293,1.775,16.94,1111122 
DISL,ioos:station:DISL:BSCA:1,2018-12-03T09:30:00Z,30.3288,-87.8293,1.8,17.0,11111222 
DISL,ioos:station:DISL:BSCA:1,2018-12-03T10:00:00Z,30.3288,-87.8293,1.739,16.92,1111122 
DISL,ioos:station:DISL:BSCA:1,2018-12-03T10:30:00Z,30.3288,-87.8293,1.8,16.9,11111222 
DISL,ioos:station:DISL:BSCA:1,2018-12-03T11:00:00Z,30.3288,-87.8293,1.734,16.9,1111122 
DISL,ioos:station:DISL:BSCA:1,2018-12-03T11:30:00Z,30.3288,-87.8293,1.7,16.9,11111222 
DISL,ioos:station:DISL:BSCA:1,2018-12-03T12:00:00Z,30.3288,-87.8293,1.738,16.94,1111122 
DISL,ioos:station:DISL:BSCA:1,2018-12-03T12:30:00Z,30.3288,-87.8293,1.7,16.9,11111222 
DISL,ioos:station:DISL:BSCA:1,2018-12-03T13:00:00Z,30.3288,-87.8293,1.734,16.9,1111122 
DISL,ioos:station:DISL:BSCA:1,2018-12-03T13:30:00Z,30.3288,-87.8293,1.7,16.9,11111222 
DISL,ioos:station:DISL:BSCA:1,2018-12-03T14:00:00Z,30.3288,-87.8293,1.75,16.96,1111122 
DISL,ioos:station:DISL:BSCA:1,2018-12-03T14:30:00Z,30.3288,-87.8293,1.8,17.0,11111222 
DISL,ioos:station:DISL:BSCA:1,2018-12-03T15:00:00Z,30.3288,-87.8293,1.755,16.97,1111122 
DISL,ioos:station:DISL:BSCA:1,2018-12-03T15:30:00Z,30.3288,-87.8293,1.8,17.0,11111222 
DISL,ioos:station:DISL:BSCA:1,2018-12-03T16:00:00Z,30.3288,-87.8293,1.793,17.02,1111122 
DISL,ioos:station:DISL:BSCA:1,2018-12-03T16:30:00Z,30.3288,-87.8293,1.8,17.0,11111222 
DISL,ioos:station:DISL:BSCA:1,2018-12-03T17:00:00Z,30.3288,-87.8293,1.806,17.03,1111122 
DISL,ioos:station:DISL:BSCA:1,2018-12-03T17:30:00Z,30.3288,-87.8293,1.8,17.0,11111222 
DISL,ioos:station:DISL:BSCA:1,2018-12-03T18:00:00Z,30.3288,-87.8293,1.8,17.0,11111222 
DISL,ioos:station:DISL:BSCA:1,2018-12-03T18:30:00Z,30.3288,-87.8293,1.767,16.97,1111122 
DISL,ioos:station:DISL:BSCA:1,2018-12-03T19:00:00Z,30.3288,-87.8293,1.8,16.9,11111222 
DISL,ioos:station:DISL:BSCA:1,2018-12-03T19:30:00Z,30.3288,-87.8293,1.779,16.95,1111122 
DISL,ioos:station:DISL:BSCA:1,2018-12-03T20:00:00Z,30.3288,-87.8293,1.8,17.0,11111222 
DISL,ioos:station:DISL:BSCA:1,2018-12-03T20:30:00Z,30.3288,-87.8293,1.83,16.9,1111122 
DISL,ioos:station:DISL:BSCA:1,2018-12-03T21:00:00Z,30.3288,-87.8293,1.9,16.9,11111222 
DISL,ioos:station:DISL:BSCA:1,2018-12-03T21:30:00Z,30.3288,-87.8293,1.873,16.94,1111122 
DISL,ioos:station:DISL:BSCA:1,2018-12-03T22:00:00Z,30.3288,-87.8293,1.9,16.9,11111222 
DISL,ioos:station:DISL:BSCA:1,2018-12-03T22:30:00Z,30.3288,-87.8293,1.899,16.93,1111122 
DISL,ioos:station:DISL:BSCA:1,2018-12-03T23:00:00Z,30.3288,-87.8293,1.9,17.0,11111222 
DISL,ioos:station:DISL:BSCA:1,2018-12-03T23:30:00Z,30.3288,-87.8293,1.939,17.01,1111122 
DISL,ioos:station:DISL:BSCA:1,2018-12-04T00:00:00Z,30.3288,-87.8293,2.0,17.0,11111222 
DISL,ioos:station:DISL:BSCA:1,2018-12-04T00:30:00Z,30.3288,-87.8293,1.941,17.15,1111122 
DISL,ioos:station:DISL:BSCA:1,2018-12-04T01:00:00Z,30.3288,-87.8293,1.9,17.5,11111222 
DISL,ioos:station:DISL:BSCA:1,2018-12-04T01:30:00Z,30.3288,-87.8293,1.933,17.2,1111122 
DISL,ioos:station:DISL:BSCA:1,2018-12-04T02:00:00Z,30.3288,-87.8293,1.9,17.5,11111222 
DISL,ioos:station:DISL:BSCA:1,2018-12-04T02:30:00Z,30.3288,-87.8293,1.935,17.5,1111122 
DISL,ioos:station:DISL:BSCA:1,2018-12-04T03:00:00Z,30.3288,-87.8293,1.9,17.7,11111222 
DISL,ioos:station:DISL:BSCA:1,2018-12-04T03:30:00Z,30.3288,-87.8293,1.923,17.42,1111122 
DISL,ioos:station:DISL:BSCA:1,2018-12-04T04:00:00Z,30.3288,-87.8293,1.9,17.6,11111222 
DISL,ioos:station:DISL:BSCA:1,2018-12-04T04:30:00Z,30.3288,-87.8293,1.867,17.48,1111122 
DISL,ioos:station:DISL:BSCA:1,2018-12-04T05:00:00Z,30.3288,-87.8293,1.8,17.6,11111222 
DISL,ioos:station:DISL:BSCA:1,2018-12-04T05:30:00Z,30.3288,-87.8293,1.804,17.26,1111122 
DISL,ioos:station:DISL:BSCA:1,2018-12-04T06:00:00Z,30.3288,-87.8293,1.8,17.8,11111222 
DISL,ioos:station:DISL:BSCA:1,2018-12-04T06:30:00Z,30.3288,-87.8293,1.748,17.09,1111122 
DISL,ioos:station:DISL:BSCA:1,2018-12-04T07:00:00Z,30.3288,-87.8293,1.7,17.6,11111222 
DISL,ioos:station:DISL:BSCA:1,2018-12-04T07:30:00Z,30.3288,-87.8293,1.675,17.28,1111122 
DISL,ioos:station:DISL:BSCA:1,2018-12-04T08:00:00Z,30.3288,-87.8293,1.6,17.1,11111222 
DISL,ioos:station:DISL:BSCA:1,2018-12-04T08:30:00Z,30.3288,-87.8293,1.603,17.22,1111122 
DISL,ioos:station:DISL:BSCA:1,2018-12-04T09:00:00Z,30.3288,-87.8293,1.6,17.2,11111222 
DISL,ioos:station:DISL:BSCA:1,2018-12-04T09:30:00Z,30.3288,-87.8293,1.529,17.54,1111122 
DISL,ioos:station:DISL:BSCA:1,2018-12-04T10:00:00Z,30.3288,-87.8293,1.5,17.3,11111222 
DISL,ioos:station:DISL:BSCA:1,2018-12-04T10:30:00Z,30.3288,-87.8293,1.494,17.59,1111122 
DISL,ioos:station:DISL:BSCA:1,2018-12-04T11:00:00Z,30.3288,-87.8293,1.5,17.5,11111222 
DISL,ioos:station:DISL:BSCA:1,2018-12-04T11:30:00Z,30.3288,-87.8293,1.483,17.53,1111122 
DISL,ioos:station:DISL:BSCA:1,2018-12-04T12:00:00Z,30.3288,-87.8293,1.5,17.4,11111222 
DISL,ioos:station:DISL:BSCA:1,2018-12-04T12:30:00Z,30.3288,-87.8293,1.476,17.32,1111122 
DISL,ioos:station:DISL:BSCA:1,2018-12-04T13:00:00Z,30.3288,-87.8293,1.5,17.2,11111222 
DISL,ioos:station:DISL:BSCA:1,2018-12-04T13:30:00Z,30.3288,-87.8293,1.448,17.05,1111122 
DISL,ioos:station:DISL:BSCA:1,2018-12-04T14:00:00Z,30.3288,-87.8293,1.4,17.2,11111222 
DISL,ioos:station:DISL:BSCA:1,2018-12-04T14:30:00Z,30.3288,-87.8293,1.438,17.04,1111122 
DISL,ioos:station:DISL:BSCA:1,2018-12-04T15:00:00Z,30.3288,-87.8293,1.5,16.9,11111222 
DISL,ioos:station:DISL:BSCA:1,2018-12-04T15:30:00Z,30.3288,-87.8293,1.454,16.76,1111122 
DISL,ioos:station:DISL:BSCA:1,2018-12-04T16:00:00Z,30.3288,-87.8293,1.5,16.7,11111222 
DISL,ioos:station:DISL:BSCA:1,2018-12-04T16:30:00Z,30.3288,-87.8293,1.522,16.68,1111122 
DISL,ioos:station:DISL:BSCA:1,2018-12-04T17:00:00Z,30.3288,-87.8293,1.6,16.7,11111222 
DISL,ioos:station:DISL:BSCA:1,2018-12-04T17:30:00Z,30.3288,-87.8293,1.593,16.67,1111122 
DISL,ioos:station:DISL:BSCA:1,2018-12-04T18:00:00Z,30.3288,-87.8293,1.6,16.6,11111222 
DISL,ioos:station:DISL:BSCA:1,2018-12-04T18:30:00Z,30.3288,-87.8293,1.645,16.65,1111122 
DISL,ioos:station:DISL:BSCA:1,2018-12-04T19:00:00Z,30.3288,-87.8293,1.657,16.75,1111122 
DISL,ioos:station:DISL:BSCA:1,2018-12-04T19:30:00Z,30.3288,-87.8293,1.7,16.8,11111222 
DISL,ioos:station:DISL:BSCA:1,2018-12-04T20:00:00Z,30.3288,-87.8293,1.7,16.8,11111222 
DISL,ioos:station:DISL:BSCA:1,2018-12-04T20:30:00Z,30.3288,-87.8293,1.7,16.8,11111222 
DISL,ioos:station:DISL:BSCA:1,2018-12-04T21:00:00Z,30.3288,-87.8293,1.7,16.9,11111222 
DISL,ioos:station:DISL:BSCA:1,2018-12-04T21:30:00Z,30.3288,-87.8293,1.8,17.0,11111222 
DISL,ioos:station:DISL:BSCA:1,2018-12-04T22:00:00Z,30.3288,-87.8293,1.8,17.0,11111222 
DISL,ioos:station:DISL:BSCA:1,2018-12-04T22:30:00Z,30.3288,-87.8293,1.8,17.0,11111222 
DISL,ioos:station:DISL:BSCA:1,2018-12-04T23:00:00Z,30.3288,-87.8293,1.8,17.0,11111222 
DISL,ioos:station:DISL:BSCA:1,2018-12-04T23:30:00Z,30.3288,-87.8293,1.8,17.0,11111222 
DISL,ioos:station:DISL:BSCA:1,2018-12-05T00:00:00Z,30.3288,-87.8293,1.8,17.0,11111222 
DISL,ioos:station:DISL:BSCA:1,2018-12-05T00:30:00Z,30.3288,-87.8293,1.9,17.1,11111222 
DISL,ioos:station:DISL:BSCA:1,2018-12-05T01:00:00Z,30.3288,-87.8293,1.8,17.1,11111222 
DISL,ioos:station:DISL:BSCA:1,2018-12-05T01:30:00Z,30.3288,-87.8293,1.8,17.0,11111222 
DISL,ioos:station:DISL:BSCA:1,2018-12-05T02:00:00Z,30.3288,-87.8293,1.8,17.0,11111222 
DISL,ioos:station:DISL:BSCA:1,2018-12-05T02:30:00Z,30.3288,-87.8293,1.8,17.0,11111222 
DISL,ioos:station:DISL:BSCA:1,2018-12-05T03:00:00Z,30.3288,-87.8293,1.8,17.0,11111222 
DISL,ioos:station:DISL:BSCA:1,2018-12-05T03:30:00Z,30.3288,-87.8293,1.8,17.0,11111222 
DISL,ioos:station:DISL:BSCA:1,2018-12-05T04:00:00Z,30.3288,-87.8293,1.8,17.0,11111222 
DISL,ioos:station:DISL:BSCA:1,2018-12-05T04:30:00Z,30.3288,-87.8293,1.8,17.0,11111222 
DISL,ioos:station:DISL:BSCA:1,2018-12-05T05:00:00Z,30.3288,-87.8293,1.8,17.0,11111222 
DISL,ioos:station:DISL:BSCA:1,2018-12-05T05:30:00Z,30.3288,-87.8293,1.8,17.1,11111222 
DISL,ioos:station:DISL:BSCA:1,2018-12-05T06:00:00Z,30.3288,-87.8293,1.7,17.1,11111222 
DISL,ioos:station:DISL:BSCA:1,2018-12-05T06:30:00Z,30.3288,-87.8293,1.7,17.1,11111222 
DISL,ioos:station:DISL:BSCA:1,2018-12-05T07:00:00Z,30.3288,-87.8293,1.6,17.1,11111222 
DISL,ioos:station:DISL:BSCA:1,2018-12-05T07:30:00Z,30.3288,-87.8293,1.6,17.1,11111222 
DISL,ioos:station:DISL:BSCA:1,2018-12-05T08:00:00Z,30.3288,-87.8293,1.6,17.1,11111222 
DISL,ioos:station:DISL:BSCA:1,2018-12-05T08:30:00Z,30.3288,-87.8293,1.5,17.1,11111222 
DISL,ioos:station:DISL:BSCA:1,2018-12-05T09:30:00Z,30.3288,-87.8293,1.5,17.0,11111222 
DISL,ioos:station:DISL:BSCA:1,2018-12-05T10:00:00Z,30.3288,-87.8293,1.5,17.0,11111222 
DISL,ioos:station:DISL:BSCA:1,2018-12-05T10:30:00Z,30.3288,-87.8293,1.4,17.0,11111222 
DISL,ioos:station:DISL:BSCA:1,2018-12-05T11:00:00Z,30.3288,-87.8293,1.4,16.9,11111222 
DISL,ioos:station:DISL:BSCA:1,2018-12-05T11:30:00Z,30.3288,-87.8293,1.4,16.9,11111222 
DISL,ioos:station:DISL:BSCA:1,2018-12-05T12:00:00Z,30.3288,-87.8293,1.3,16.8,11111222 
DISL,ioos:station:DISL:BSCA:1,2018-12-05T12:30:00Z,30.3288,-87.8293,1.3,16.8,11111222 
DISL,ioos:station:DISL:BSCA:1,2018-12-05T13:00:00Z,30.3288,-87.8293,1.3,16.9,11111222 
DISL,ioos:station:DISL:BSCA:1,2018-12-05T13:30:00Z,30.3288,-87.8293,1.3,16.9,11111222 
DISL,ioos:station:DISL:BSCA:1,2018-12-05T14:00:00Z,30.3288,-87.8293,1.3,16.9,11111222 
DISL,ioos:station:DISL:BSCA:1,2018-12-05T14:30:00Z,30.3288,-87.8293,1.3,16.9,11111222 
DISL,ioos:station:DISL:BSCA:1,2018-12-05T15:00:00Z,30.3288,-87.8293,1.3,16.9,11111222 
DISL,ioos:station:DISL:BSCA:1,2018-12-05T15:30:00Z,30.3288,-87.8293,1.4,16.9,11111222 
DISL,ioos:station:DISL:BSCA:1,2018-12-05T16:00:00Z,30.3288,-87.8293,1.4,16.9,11111222 
DISL,ioos:station:DISL:BSCA:1,2018-12-05T16:30:00Z,30.3288,-87.8293,1.5,17.0,11111222 
DISL,ioos:station:DISL:BSCA:1,2018-12-05T17:00:00Z,30.3288,-87.8293,1.5,17.0,11111222 
DISL,ioos:station:DISL:BSCA:1,2018-12-05T17:30:00Z,30.3288,-87.8293,1.5,17.0,11111222 
DISL,ioos:station:DISL:BSCA:1,2018-12-05T18:00:00Z,30.3288,-87.8293,1.5,17.1,11111222 
DISL,ioos:station:DISL:BSCA:1,2018-12-05T18:30:00Z,30.3288,-87.8293,1.5,17.1,11111222 
DISL,ioos:station:DISL:BSCA:1,2018-12-05T19:00:00Z,30.3288,-87.8293,1.6,17.1,11111222 
DISL,ioos:station:DISL:BSCA:1,2018-12-05T19:30:00Z,30.3288,-87.8293,1.6,17.1,11111222 
DISL,ioos:station:DISL:BSCA:1,2018-12-05T20:00:00Z,30.3288,-87.8293,1.6,17.1,11111222 
DISL,ioos:station:DISL:BSCA:1,2018-12-05T20:30:00Z,30.3288,-87.8293,1.6,17.0,11111222 
DISL,ioos:station:DISL:BSCA:1,2018-12-05T21:00:00Z,30.3288,-87.8293,1.7,16.9,11111222 
DISL,ioos:station:DISL:BSCA:1,2018-12-05T21:30:00Z,30.3288,-87.8293,1.7,16.9,11111222 
DISL,ioos:station:DISL:BSCA:1,2018-12-05T22:00:00Z,30.3288,-87.8293,1.7,17.0,11111222 
DISL,ioos:station:DISL:BSCA:1,2018-12-05T22:30:00Z,30.3288,-87.8293,1.7,16.9,11111222 
DISL,ioos:station:DISL:BSCA:1,2018-12-05T23:00:00Z,30.3288,-87.8293,1.7,16.6,11111222 
DISL,ioos:station:DISL:BSCA:1,2018-12-05T23:30:00Z,30.3288,-87.8293,1.7,16.5,11111222 
DISL,ioos:station:DISL:BSCA:1,2018-12-06T00:00:00Z,30.3288,-87.8293,1.8,16.4,11111222 
DISL,ioos:station:DISL:BSCA:1,2018-12-06T00:30:00Z,30.3288,-87.8293,1.8,16.3,11111222 
DISL,ioos:station:DISL:BSCA:1,2018-12-06T01:00:00Z,30.3288,-87.8293,1.8,16.4,11111222 
DISL,ioos:station:DISL:BSCA:1,2018-12-06T01:30:00Z,30.3288,-87.8293,1.8,16.3,11111222 
DISL,ioos:station:DISL:BSCA:1,2018-12-06T02:00:00Z,30.3288,-87.8293,1.8,16.2,11111222 
DISL,ioos:station:DISL:BSCA:1,2018-12-06T02:30:00Z,30.3288,-87.8293,1.8,16.2,11111222 
DISL,ioos:station:DISL:BSCA:1,2018-12-06T03:00:00Z,30.3288,-87.8293,1.8,16.2,11111222 
DISL,ioos:station:DISL:BSCA:1,2018-12-06T03:30:00Z,30.3288,-87.8293,1.7,16.2,11111222 
DISL,ioos:station:DISL:BSCA:1,2018-12-06T04:00:00Z,30.3288,-87.8293,1.7,16.2,11111222 
DISL,ioos:station:DISL:BSCA:1,2018-12-06T04:30:00Z,30.3288,-87.8293,1.7,16.2,11111222 
DISL,ioos:station:DISL:BSCA:1,2018-12-06T05:00:00Z,30.3288,-87.8293,1.7,16.2,11111222 
DISL,ioos:station:DISL:BSCA:1,2018-12-06T05:30:00Z,30.3288,-87.8293,1.6,16.2,11111222 
DISL,ioos:station:DISL:BSCA:1,2018-12-06T06:00:00Z,30.3288,-87.8293,1.6,16.2,11111222 
DISL,ioos:station:DISL:BSCA:1,2018-12-06T06:30:00Z,30.3288,-87.8293,1.6,16.2,11111222 
DISL,ioos:station:DISL:BSCA:1,2018-12-06T07:00:00Z,30.3288,-87.8293,1.6,16.2,11111222 
DISL,ioos:station:DISL:BSCA:1,2018-12-06T07:30:00Z,30.3288,-87.8293,1.5,16.2,11111222 
DISL,ioos:station:DISL:BSCA:1,2018-12-06T08:00:00Z,30.3288,-87.8293,1.5,16.2,11111222 
DISL,ioos:station:DISL:BSCA:1,2018-12-06T08:30:00Z,30.3288,-87.8293,1.5,16.2,11111222 
DISL,ioos:station:DISL:BSCA:1,2018-12-06T09:00:00Z,30.3288,-87.8293,1.4,16.2,11111222 
DISL,ioos:station:DISL:BSCA:1,2018-12-06T09:30:00Z,30.3288,-87.8293,1.4,16.2,11111222 
DISL,ioos:station:DISL:BSCA:1,2018-12-06T10:00:00Z,30.3288,-87.8293,1.3,16.2,11111222 
DISL,ioos:station:DISL:BSCA:1,2018-12-06T10:30:00Z,30.3288,-87.8293,1.3,16.2,11111222 
DISL,ioos:station:DISL:BSCA:1,2018-12-06T11:00:00Z,30.3288,-87.8293,1.3,16.2,11111222 
DISL,ioos:station:DISL:BSCA:1,2018-12-06T11:30:00Z,30.3288,-87.8293,1.3,16.2,11111222 
DISL,ioos:station:DISL:BSCA:1,2018-12-06T12:00:00Z,30.3288,-87.8293,1.3,16.2,11111222 
DISL,ioos:station:DISL:BSCA:1,2018-12-06T12:30:00Z,30.3288,-87.8293,1.2,16.3,11111222 
DISL,ioos:station:DISL:BSCA:1,2018-12-06T13:00:00Z,30.3288,-87.8293,1.2,16.3,11111222 
DISL,ioos:station:DISL:BSCA:1,2018-12-06T13:30:00Z,30.3288,-87.8293,1.2,16.3,11111222 
DISL,ioos:station:DISL:BSCA:1,2018-12-06T14:00:00Z,30.3288,-87.8293,1.2,16.2,11111222 
DISL,ioos:station:DISL:BSCA:1,2018-12-06T14:30:00Z,30.3288,-87.8293,1.2,16.2,11111222 
DISL,ioos:station:DISL:BSCA:1,2018-12-06T15:00:00Z,30.3288,-87.8293,1.3,16.3,11111222 
DISL,ioos:station:DISL:BSCA:1,2018-12-06T15:30:00Z,30.3288,-87.8293,1.3,16.3,11111222 
DISL,ioos:station:DISL:BSCA:1,2018-12-06T16:00:00Z,30.3288,-87.8293,1.3,16.3,11111222 
DISL,ioos:station:DISL:BSCA:1,2018-12-06T16:30:00Z,30.3288,-87.8293,1.3,16.3,11111222 